Regional Weather Roundup
Issued by NWS

Home | Current Version | Previous Version | Graphics & Text | Print | Product List | Glossary On
Versions: 1 2 3 4 5 6 7 8 9 10 11 12 13 14 15 16 17 18 19 20 21 22 23 24 25 26 27 28 29 30 31 32 33 34 35 36 37 38 39 40 41 42 43 44 45 46 47 48 49 50
000
ASUS43 KBIS 220010
RWRND

NORTH DAKOTA REGIONAL WEATHER ROUNDUP
NATIONAL WEATHER SERVICE BISMARCK ND
700 PM CDT FRI JUL 21 2017

NOTE: "FAIR" INDICATES FEW OR NO CLOUDS BELOW 12,000 FEET WITH NO
SIGNIFICANT WEATHER AND/OR OBSTRUCTIONS TO VISIBILITY.


NDZ001>003-009>011-017-220100-
NORTHWEST NORTH DAKOTA

CITY           SKY/WX    TMP DP  RH WIND       PRES   REMARKS
WILLISTON      SUNNY     91  47  21 NW17G26   29.81R
6HR MIN TEMP:  83; 6HR MAX TEMP:  96;

MINOT          MOSUNNY   90  64  42 NE8       29.76F HX  91
MINOT AFB      SUNNY     87  63  44 N7        29.75F
$$

NDZ018>021-031>035-040>046-220100-
SOUTHWEST NORTH DAKOTA

CITY           SKY/WX    TMP DP  RH WIND       PRES   REMARKS
BISMARCK       MOSUNNY   91  67  44 CALM      29.77F HX  94
6HR MIN TEMP:  84; 6HR MAX TEMP:  92;

DICKINSON      SUNNY     91  42  18 W21G26    29.82S
GARRISON         N/A     87  61  41 SE3       29.77F
6HR MIN TEMP:  76; 6HR MAX TEMP:  88; 6HR PCP:  0.02;

HETTINGER ARPT SUNNY     92  52  25 NW14      29.86S
$$

NDZ004>008-012>016-024-026-027-054-220100-
NORTHEAST NORTH DAKOTA

CITY           SKY/WX    TMP DP  RH WIND       PRES   REMARKS
GRAND FORKS    CLOUDY    83  70  64 CALM      29.74R
GRND FRKS AFB  CLOUDY    80  71  73 N6        29.75R
DEVILS LAKE    MOSUNNY   83  66  56 NW7       29.79F
$$

NDZ022-023-025-028>030-036>039-047>053-220100-
SOUTHEAST NORTH DAKOTA

CITY           SKY/WX    TMP DP  RH WIND       PRES   REMARKS
FARGO          MOSUNNY   82  62  50 VRB5      29.74R
6HR MIN TEMP:  76; 6HR MAX TEMP:  94; 6HR PCP:  0.01;

JAMESTOWN      PTSUNNY   82  63  52 NE14G20   29.77F
$$





USA.gov is the U.S. government's official web portal to all federal, state and local government web resources and services.